DW0683 Weather Reports


Display with metric or nautical units.
time (UTC)temp
F
wind
direction
speed
MPH
gust
MPH
rain 1hr
in
rain 24hr
in
rain mn
in
humidity
%
barometer
mb
20260504080842 0 0.0 0.0 0.00 0.02 0.00 1015.1
20260504043903 68 62 2.0 3.0 0.00 0.02 0.02 51 1016.5
20260504040831 69 87 1.0 2.0 0.00 0.02 0.02 51 1016.6
20260504033824 70 110 1.0 2.0 0.00 0.02 0.02 50 1016.8
20260504030843 70 101 1.0 3.0 0.00 0.02 0.02 51 1016.7
20260504023820 70 170 0.0 2.0 0.00 0.02 0.02 50 1016.8
20260504020834 71 150 0.0 3.0 0.00 0.03 0.02 49 1016.2
20260504013828 72 159 1.0 2.0 0.01 0.03 0.02 48 1016.2
20260504010820 72 163 0.0 2.0 0.01 0.03 0.02 47 1015.9
20260504003830 73 134 0.0 2.0 0.00 0.02 0.01 45 1015.5
20260504000825 74 144 1.0 2.0 0.00 0.03 0.01 44 1015.2
20260503233819 75 102 1.0 4.0 0.00 0.03 0.01 42 1014.8
20260503230836 76 122 2.0 5.0 0.00 0.04 0.01 40 1014.9
20260503223827 76 68 1.0 5.0 0.00 0.04 0.01 40 1014.7
20260503220824 76 118 2.0 8.0 0.00 0.07 0.01 39 1014.7
20260503213817 77 10 2.0 7.0 0.00 0.07 0.01 40 1014.7
20260503210835 77 32 3.0 6.0 0.00 0.15 0.01 39 1014.8
20260503203834 78 71 4.0 11.0 0.00 0.15 0.01 38 1015.0
20260503200821 77 69 3.0 8.0 0.00 0.15 0.01 41 1015.6
20260503193822 77 45 4.0 8.0 0.00 0.15 0.01 40 1015.6
20260503190840 76 31 5.0 10.0 0.01 0.15 0.01 38 1016.3
20260503183836 75 11 4.0 12.0 0.01 0.15 0.01 43 1016.8
20260503180833 72 24 6.0 10.0 0.00 0.14 0.00 44 1017.2
20260503173827 71 47 3.0 10.0 0.00 0.14 0.00 46 1017.3
20260503170823 71 55 4.0 11.0 0.00 0.14 0.00 44 1017.5
20260503150832 0 0.0 0.0 0.00 0.14 0.00 1017.9